Location: Cahas Mountain Overlook
(37.0833°N, 80.1000°W)
Time: 13:24:01
(UTC-04:00)

Tiangong - Visible Passes

Search period start: 30 September 2023 00:00
Search period end: 10 October 2023 00:00
Orbit: 372 x 384 km, 41.5° (Epoch: 30 September)

Date Brightness Start Highest point End Pass type
(mag) Time Alt. Az. Time Alt. Az. Time Alt. Az.
30 Sep -2.2 20:07:48 10° WSW 20:10:55 81° NNW 20:12:28 27° ENE visible
01 Oct -1.1 20:42:59 10° W 20:45:48 40° NNW 20:45:48 40° NNW visible
02 Oct -1.7 19:41:01 10° W 19:44:06 55° NNW 19:46:57 12° ENE visible
02 Oct 0.9 21:18:12 10° WNW 21:19:01 16° WNW 21:19:01 16° WNW visible
03 Oct -1.0 20:16:12 10° WNW 20:19:08 35° N 20:20:04 28° NE visible
04 Oct -0.3 20:51:13 10° WNW 20:53:08 28° NW 20:53:08 28° NW visible
05 Oct -1.0 19:49:12 10° WNW 19:52:06 34° N 19:54:04 17° ENE visible
05 Oct 1.4 21:25:58 10° WNW 21:26:08 11° WNW 21:26:08 11° WNW visible
06 Oct -1.6 20:24:01 10° WNW 20:27:03 44° NNE 20:27:03 44° NNE visible
07 Oct -1.2 19:21:58 10° WNW 19:24:54 36° N 19:27:50 10° ENE visible
07 Oct 0.3 20:58:38 10° WNW 21:00:01 23° WNW 21:00:01 23° WNW visible
08 Oct -2.0 19:56:35 10° WNW 19:59:41 59° NNE 20:00:55 31° E visible
09 Oct -1.4 20:31:11 10° WNW 20:33:55 48° SW 20:33:55 48° SW visible
